Retour au catalogue

STARLINK-30353

ActifCommunicationsVLEO
NORAD 58113·PAYLOAD·🇺🇸 United States

Lancé Oct 21, 2023 depuis Vandenberg Space Force Base

Loading…

Prochains Passages (prochaines 24 heures)

TLE

FraisSource: CelesTrak SupGP

Époque: Sep 14, 2026, 22:08 UTC

1 58113C 23161S   26257.92270833 -.00004540  00000+0 -13417-3 0  2577
2 58113  53.1603   5.7119 0001191  75.1100  15.1322 15.34384369    18

Suivez STARLINK-30353 en temps réel avec AllMySat

Download on the App Store